THORAD AGENA D DEB *, 6159

Orbit data source: Space-Track

THORAD AGENA D DEB *, 6159 is space debris in SSO originally from a launch on Wed, 08 Apr 1970 UTC launched from the Air Force Western Test Range (AFWTR). Debris objects in space refer to the collection of defunct objects orbiting the Earth. Examples of debris include non-operational satellites, rocket bodies, and fragments generated from explosions, collisions, or faulty payload assembly.

Loading next visibility...
Identifier
6159, 1970-025MY
Orbit
SSO
Country
Flag of USUS
Related business
Manufacturer
Unknown
Mission
Spacecraft
Bus & Motor
Unknown
Mass
Unknown
Launch date (UTC)
1970-04-08 (56 years ago)
Launch vehicle
Unknown
Launch site
Air Force Western Test Range (AFWTR)
Object type
Payload
Rocket body
Debris
Shape & HBR
Unknown shape, 0.1 m
Radar Cross Section
Small (<0.1 m²)

Expand to show TLE details & history
Last TLE update: 3 days ago

TLE from 3 days ago
0 THORAD AGENA D DEB *
1 06159U 70025MY  26033.89647539  .00001963  00000-0  75627-2 0  9998
2 06159 101.1948 177.1309 0058613 142.8877   8.4890 12.90588703638431
Epoch: 2026-02-02T21:30Z
TLE epoch observation values (Epoch: 2026-02-02T21:30:55.473Z)
Latitude
27.9748°
Longitude
-92.68186°
Altitude
1,257.891 km
Speed
7.25 km/s
True Right ascension
00h 12m 32s
True Declination
27° 50' 31"
Sunlit
Object was in daylight at epoch
Visualization orbit readout
Latitude
Unknown
Longitude
Unknown
Altitude
Unknown
Speed
Unknown
Apparent Right ascension
Unknown
Apparent Declination
Unknown
Sunlit
N/A
Visualization observer readout
Local Sidereal Time
04:19:45
Azimuth
Unknown
Elevation
Unknown
Doppler factor
Unknown
Orbital elements
Apogee altitude
1,341.634 km
Perigee altitude
1,251.665 km
Semi-major axis
7,674.786 km
Eccentricity
0.00586
Inclination
101.1948°
RAAN
177.1309°
Arg. of periapsis
142.8877°
True anomaly
8.58887°
Mean anomaly
8.489°
Eccentric anomaly
8.53886°
Mean motion
3.22808 °/min
Orbital period
111.52 mins
BSTAR
0.0075627
Loading maneuver chart data...
Computing Atmospheric mass density...

Documentation

Showing up to 5 results
|